Regional Weather Roundup
Issued by NWS

Home | Current Version | Previous Version | Text Only | Print | Product List | Glossary On
Versions: 1 2 3 4 5 6 7 8 9 10 11 12 13 14 15 16 17 18 19 20 21 22 23 24 25 26 27 28 29 30 31 32 33 34 35 36 37 38 39 40 41 42 43 44 45 46 47 48 49 50
000
ASUS45 KSLC 291610
RWRUT

UTAH REGIONAL WEATHER ROUNDUP
NATIONAL WEATHER SERVICE SALT LAKE CITY UT
1000 AM MDT FRI MAY 29 2015

UTZ001>011-023>025-291700-

NORTHERN UTAH

CITY           SKY/WX    TMP DP  RH WIND       PRES   REMARKS
BRIGHAM CITY   SUNNY     59  47  65 CALM      30.22S
HILL AFB       SUNNY     60  43  54 E7        30.23R
LOGAN          SUNNY     55  48  77 N3        30.24S
OGDEN          SUNNY     62  43  49 S8        30.21S
PROVO AIRPORT  MOSUNNY   63  43  48 CALM      30.24S
SALT LAKE CITY MOSUNNY   65  41  41 CALM      30.20S
VERNAL         SUNNY     57  44  62 SE6       30.27R
WENDOVER       SUNNY     64  46  52 S5        30.20S
HEBER CITY     SUNNY     54  39  58 W3        30.27F
WEST JORDAN    SUNNY     64  43  45 E5        30.22S

$$

UTZ012>022-026-027-291700-

SOUTHERN/CENTRAL UTAH

CITY           SKY/WX    TMP DP  RH WIND       PRES   REMARKS
BLANDING       SUNNY     67  34  29 NW10      30.29S
BRYCE CANYON   MOSUNNY   59  35  40 CALM      30.33R
CEDAR CITY     SUNNY     63  43  48 VRB5      30.21R
DELTA          SUNNY     65  41  42 NE3       30.21S
HANKSVILLE     SUNNY     66  41  39 SE3       30.22F
MILFORD        MOSUNNY   63  49  60 N6        30.20S
MOAB/CYNLANDS  SUNNY     67  38  34 E6        30.19S
PRICE          SUNNY     64  34  32 CALM      30.25R
ST GEORGE      SUNNY     79  43  27 NE5       30.08S
KANAB          SUNNY     72  37  28 NE13G18   30.22S

$$

REGIONAL REPORTS     COLORADO/ARIZONA

CITY           SKY/WX    TMP DP  RH WIND       PRES   REMARKS
CRAIG, CO      CLOUDY    53  42  66 SW5       30.30S
GRAND JUNCTION SUNNY     61  43  51 SE7       30.23S
RIFLE          SUNNY     57  41  55 VRB3      30.27S
MONTROSE       SUNNY     57  42  57 CALM      30.28S
CORTEZ         SUNNY     64  38  38 CALM      30.23R
PAGE, AZ       SUNNY     74  39  28 SE3       30.15R
GRAND CANYON   SUNNY     67  36  31 VRB6      30.27S
KINGMAN        SUNNY     82  21  10 VRB3      30.06R
FLAGSTAFF      SUNNY     65  34  31 VRB7      30.29S

$$

REGIONAL REPORTS    NEVADA/IDAHO/WYOMING

CITY           SKY/WX    TMP DP  RH WIND       PRES   REMARKS
LAS VEGAS, NV  MOSUNNY   85  33  15 CALM      29.95R
ELY            SUNNY     60  43  53 N5        30.25F
ELKO           SUNNY     63  43  48 NE7       30.19S
POCATELLO, ID  MOSUNNY   60  47  61 N5        30.24S
BURLEY         SUNNY     63  49  60 NE9       30.19S
EVANSTON, WY   MOSUNNY   52  40  63 VRB3      30.32R
ROCK SPRINGS   PTSUNNY   49  40  71 VRB5      30.33R
KEMMERER       MOSUNNY   52  37  58 E7        30.34R

$$



USA.gov is the U.S. government's official web portal to all federal, state and local government web resources and services.